Home > Weather > Strasbourg > Past weeks

Flag for France Past Weather in Strasbourg, Alsace, France — Yesterday and Last 2 Weeks

Now
84 °F

Passing clouds.


Feels Like: 84 °F
Forecast: 60 / 73 °F
Wind: 8 mph from West

Location: Strasbourg Airport

Current Time: Jul 30, 2016 at 7:01:19 PM

Latest Report: Jul 30, 2016 at 6:30 PM


Visibility: N/A

Pressure: 29.89 "Hg

Humidity: 43%

Dew Point: 59 °F

Location of StrasbourgLocation

Past Weather in Strasbourg — Graph

°F

Strasbourg Temperature Yesterday

Maximum temperature yesterday: 81 °F (at 6:30 PM)
Minimum temperature yesterday: 64 °F (at 1:30 AM)
Average temperature yesterday: 71 °F

High & Low Weather Summary for the Past Weeks

 TemperatureHumidityPressure
High95 °F (Jul 20, 5:30 PM)100% (Jul 23, 4:30 AM)30.33 "Hg (Jul 23, 4:30 AM)
Low50 °F (Jul 16, 3:30 AM)32% (Jul 20, 5:00 PM)29.89 "Hg (Jul 20, 11:00 PM)
Average72 °F72%30.08 "Hg
* Reported Jul 15 5:00 PM — Jul 30 5:30 PM, Strasbourg, Weather by CustomWeather, © 2016

Note: Actual official high and low records may vary slightly from our data, if they occured in-between our weather recording intervals... More about our weather records

Advertising

Strasbourg Weather History for the Previous 24 Hours

Scroll right to see more
 ConditionsComfort  
Time TempWeatherWind HumidityBarometerVisibility
5:30 PM
Sat, Jul 30
84 °FPassing clouds.8 mph45%29.89 "HgN/A
5:00 PM84 °FPassing clouds.8 mph43%29.89 "HgN/A
4:30 PM86 °FPassing clouds.9 mph43%29.89 "HgN/A
4:00 PM86 °FPassing clouds.9 mph46%29.92 "HgN/A
3:30 PM84 °FSunny.5 mph48%29.92 "Hg10 mi
3:00 PM82 °FPartly sunny.3 mph55%29.92 "HgN/A
2:30 PM82 °FPassing clouds.3 mph51%29.92 "HgN/A
2:00 PM81 °FBroken clouds.3 mph58%29.95 "HgN/A
1:30 PM81 °FBroken clouds.3 mph58%29.95 "HgN/A
1:00 PM81 °FBroken clouds.5 mph54%29.95 "HgN/A
12:30 PM79 °FScattered clouds.3 mph58%29.95 "HgN/A
12:00 PM79 °FPartly sunny.7 mph58%29.95 "HgN/A
11:30 AM79 °FPartly sunny.3 mph54%29.95 "HgN/A
11:00 AM77 °FPartly sunny.5 mph61%29.95 "HgN/A
10:30 AM75 °FOvercast.3 mph61%29.95 "HgN/A
10:00 AM75 °FPartly sunny.3 mph65%29.98 "HgN/A
9:30 AM73 °FPassing clouds.5 mph69%29.98 "HgN/A
9:00 AM72 °FSunny.3 mph69%29.98 "Hg10 mi
8:30 AM70 °FPassing clouds.3 mph78%29.98 "HgN/A
8:00 AM66 °FPartly sunny.3 mph83%29.98 "HgN/A
7:30 AM64 °FPartly sunny.2 mph88%29.98 "HgN/A
7:00 AM63 °FPassing clouds.1 mph94%29.98 "HgN/A
6:30 AM63 °FMostly cloudy.2 mph88%29.98 "HgN/A
6:00 AM63 °FMostly cloudy.3 mph94%29.98 "HgN/A
5:30 AM63 °FLight rain. Overcast.3 mph94%29.98 "HgN/A
5:00 AM63 °FOvercast.3 mph94%29.98 "HgN/A
4:30 AM63 °FPassing clouds.2 mph88%29.98 "HgN/A
4:00 AM63 °FPartly cloudy.2 mph88%29.95 "HgN/A
3:30 AM63 °FPassing clouds.3 mph94%29.98 "HgN/A
3:00 AM63 °FClear.5 mph88%29.98 "Hg10 mi
2:30 AM63 °FPassing clouds.5 mph88%29.98 "HgN/A
2:00 AM64 °FPassing clouds.6 mph88%29.98 "HgN/A
1:30 AM66 °FPassing clouds.5 mph83%29.98 "HgN/A
1:00 AM68 °FOvercast.5 mph78%29.98 "HgN/A
12:30 AM68 °FPassing clouds.5 mph78%29.98 "HgN/A
12:00 AM70 °FPassing clouds.5 mph73%29.98 "HgN/A
11:30 PM
Fri, Jul 29
70 °FPassing clouds.7 mph73%29.98 "HgN/A
11:00 PM68 °FPassing clouds.9 mph78%29.98 "HgN/A
10:30 PM66 °FPassing clouds.8 mph88%29.98 "HgN/A
10:00 PM70 °FLight rain. Clear.5 mph78%29.95 "HgN/A
9:30 PM73 °FSunny.3 mph65%29.95 "HgN/A
9:00 PM75 °FSunny.6 mph61%29.95 "Hg10 mi
8:30 PM77 °FSunny.7 mph57%29.95 "Hg10 mi
8:00 PM77 °FScattered clouds.10 mph57%29.95 "HgN/A
7:30 PM77 °FPartly sunny.9 mph57%29.95 "HgN/A
7:00 PM79 °FPartly sunny.14 mph51%29.95 "HgN/A
Weather by CustomWeather, © 2016

See weather overviewHow to use our weather pages